Weston Point, United Kingdom

11:10 AM GMT on February 24, 2017 (GMT +0000)
Liverpool

Weather History for EGGP - August, 2013

Change the Weather History Date:

Tuesday, August 20, 2013

  Actual Average Record
Temperature  
Mean Temperature 62 °F -  
Max Temperature 69 °F 64 °F 73 °F (1997)
Min Temperature 55 °F 52 °F 50 °F (1999)
Degree Days  
Heating Degree Days 3    
Growing Degree Days 12 (Base 50)    
Moisture  
Dew Point 54 °F    
Average Humidity 75    
Maximum Humidity 94    
Minimum Humidity 56    
Precipitation  
Precipitation 0.00 in - - ()
Sea Level Pressure  
Sea Level Pressure 30.29 in    
Wind  
Wind Speed 6 mph ()    
Max Wind Speed 13 mph    
Max Gust Speed -    
Visibility 6.2 miles    
Events      
Averages and records for this station are not official NWS values.
T = Trace of Precipitation, MM = Missing Value Source: Averaged Metar Reports

Daily Weather History Graph

Daily Weather History Graph

Search for Another Location

Airport or City:

Trip Planner

Search our weather history database for the weather conditions in past years. The results will help you decide how hot, cold, wet, or windy it might be!

Date:

Astronomy

Aug. 20, 2013 Rise Set
Actual Time 6:00 AM BST 8:28 PM BST
Civil Twilight 5:21 AM BST 9:06 PM BST
Nautical Twilight 4:32 AM BST 9:55 PM BST
Astronomical Twilight 3:32 AM BST 10:54 PM BST
Moon 7:42 PM BST (8/20) 5:14 AM BST (8/20)
Length of Visible Light 15h 45m
Length of Day
14h 27m
Waxing Gibbous, 99% of the Moon is Illuminated
Aug 20
Waxing Gibbous
Aug 21
Full
Aug 28
Last Quarter
Sep 5
New
Sep 12
First Quarter

Hourly Weather History & Observations

Time (BST) Temp. Dew Point Humidity Pressure Visibility Wind Dir Wind Speed Gust Speed Precip Events Conditions
12:20 AM 59.0 °F 53.6 °F 82% 30.27 in - South 4.6 mph - N/A   Clear
12:50 AM 59.0 °F 53.6 °F 82% 30.27 in - SSW 5.8 mph - N/A   Clear
1:20 AM 59.0 °F 53.6 °F 82% 30.27 in - Variable 3.5 mph - N/A   Clear
1:50 AM 59.0 °F 53.6 °F 82% 30.27 in - Variable 3.5 mph - N/A   Clear
2:20 AM 59.0 °F 53.6 °F 82% 30.27 in - WSW 8.1 mph - N/A   Clear
2:50 AM 59.0 °F 53.6 °F 82% 30.30 in - WSW 8.1 mph - N/A   Clear
3:20 AM 59.0 °F 53.6 °F 82% 30.30 in - WSW 8.1 mph - N/A   Clear
3:50 AM 59.0 °F 53.6 °F 82% 30.30 in - WSW 6.9 mph - N/A   Clear
4:20 AM 59.0 °F 53.6 °F 82% 30.30 in - SSW 4.6 mph - N/A   Clear
4:50 AM 57.2 °F 53.6 °F 88% 30.30 in - South 5.8 mph - N/A   Clear
5:20 AM 57.2 °F 53.6 °F 88% 30.27 in - South 4.6 mph - N/A   Clear
5:50 AM 55.4 °F 53.6 °F 94% 30.30 in - SSW 5.8 mph - N/A   Clear
6:20 AM 55.4 °F 53.6 °F 94% 30.30 in - Variable 2.3 mph - N/A   Clear
6:50 AM 55.4 °F 53.6 °F 94% 30.30 in - SSW 3.5 mph - N/A   Clear
7:20 AM 57.2 °F 53.6 °F 88% 30.30 in - Variable 2.3 mph - N/A   Clear
7:50 AM 57.2 °F 53.6 °F 88% 30.30 in - South 4.6 mph - N/A   Clear
8:20 AM 59.0 °F 55.4 °F 88% 30.30 in - South 4.6 mph - N/A   Clear
8:50 AM 60.8 °F 55.4 °F 82% 30.30 in - SW 4.6 mph - N/A   Clear
9:20 AM 62.6 °F 55.4 °F 77% 30.30 in - SW 5.8 mph - N/A   Clear
9:50 AM 62.6 °F 55.4 °F 77% 30.33 in 6.2 mi WSW 5.8 mph - N/A   Scattered Clouds
10:20 AM 62.6 °F 55.4 °F 77% 30.33 in 6.2 mi Variable 3.5 mph - N/A   Scattered Clouds
11:20 AM 66.2 °F 55.4 °F 68% 30.33 in 6.2 mi West 4.6 mph - N/A   Scattered Clouds
11:50 AM 64.4 °F 55.4 °F 73% 30.33 in 6.2 mi WNW 8.1 mph - N/A   Partly Cloudy
12:20 PM 66.2 °F 57.2 °F 73% 30.33 in 6.2 mi WNW 4.6 mph - N/A   Partly Cloudy
12:50 PM 66.2 °F 55.4 °F 68% 30.33 in 6.2 mi West 8.1 mph - N/A   Scattered Clouds
1:50 PM 66.2 °F 55.4 °F 68% 30.33 in 6.2 mi WNW 8.1 mph - N/A   Partly Cloudy
2:20 PM 68.0 °F 53.6 °F 60% 30.30 in 6.2 mi Variable 6.9 mph - N/A   Partly Cloudy
2:50 PM 68.0 °F 53.6 °F 60% 30.30 in 6.2 mi West 9.2 mph - N/A   Partly Cloudy
3:20 PM 68.0 °F 53.6 °F 60% 30.30 in 6.2 mi WSW 8.1 mph - N/A   Partly Cloudy
3:50 PM 68.0 °F 53.6 °F 60% 30.30 in 6.2 mi West 8.1 mph - N/A   Partly Cloudy
4:20 PM 69.8 °F 53.6 °F 56% 30.30 in 6.2 mi West 12.7 mph - N/A   Partly Cloudy
4:50 PM 68.0 °F 53.6 °F 60% 30.27 in 6.2 mi West 10.4 mph - N/A   Partly Cloudy
5:20 PM 68.0 °F 53.6 °F 60% 30.27 in 6.2 mi West 11.5 mph - N/A   Partly Cloudy
5:50 PM 68.0 °F 55.4 °F 64% 30.27 in 6.2 mi WNW 9.2 mph - N/A   Partly Cloudy
6:20 PM 66.2 °F 53.6 °F 64% 30.27 in 6.2 mi WNW 8.1 mph - N/A   Partly Cloudy
6:50 PM 66.2 °F 51.8 °F 60% 30.27 in - West 10.4 mph - N/A   Clear
7:20 PM 66.2 °F 53.6 °F 64% 30.27 in - West 8.1 mph - N/A   Clear
7:50 PM 64.4 °F 53.6 °F 68% 30.27 in - WSW 8.1 mph - N/A   Clear
8:20 PM 64.4 °F 53.6 °F 68% 30.27 in - WSW 9.2 mph - N/A   Clear
8:50 PM 62.6 °F 53.6 °F 72% 30.27 in - SW 8.1 mph - N/A   Clear
9:20 PM 62.6 °F 51.8 °F 68% 30.27 in - WSW 10.4 mph - N/A   Clear
9:50 PM 62.6 °F 51.8 °F 68% 30.27 in - SW 9.2 mph - N/A   Clear
10:20 PM 62.6 °F 51.8 °F 68% 30.27 in - SW 8.1 mph - N/A   Clear
10:50 PM 60.8 °F 51.8 °F 72% 30.27 in - SW 5.8 mph - N/A   Clear
11:20 PM 62.6 °F 53.6 °F 72% 30.27 in - South 4.6 mph - N/A   Clear
11:50 PM 60.8 °F 55.4 °F 82% 30.27 in - South 4.6 mph - N/A   Clear